Погода в Благовещенке

Россия / Алтайский край     52°50′02″N   79°52′07″E
темп.,
°C
ветер,
м/с
пор.,
м/с
влажн.,
%
обл.,
%
осадки,
мм/ч
давл.,
гПа
погр.,
м
29 июля, чт
чт2901:00+15ююв33490 0.0 101026
04:00+13ююв34530 0.0 100940
07:00+13ю465796 0.0 1009116
10:00+20ю463948 0.0 1008513
13:00+25ююз3430100 0.0 10081714
16:00+26зсз2327100 0.0 10072727
19:00+24ссз5534100 0.0 1006632
22:00+17с5107297 0.4 1008248
30 июля, пт
пт3001:00+15с368396 0.4 1009122
04:00+13ссз497849 0.0 1010157
07:00+12ссз36800 0.0 1011144
10:00+19с45500 0.0 1013605
13:00+22ссз55320 0.0 10141323
16:00+24ссз45250 0.0 10141974
19:00+24ссз34280 0.0 10141847
22:00+18св11405 0.0 101511
31 июля, сб
сб3101:00+17ююв224312 0.0 101511
04:00+15ююв334989 0.0 101426
07:00+15ю3549100 0.0 101487
10:00+22ю563591 0.0 1014445
13:00+26ю5524100 0.0 10121329
16:00+28ю4722100 0.0 10112805
19:00+23с5739100 0.0 1010192
22:00+22в223899 0.0 101128
1 августа, вс
вс101:00+21юв333860 0.1 101031
04:00+21ю343785 0.0 100967
07:00+20ююз344252 0.0 100965
10:00+25з34371 0.0 1009511
13:00+28з453499 0.0 10091450
16:00+30з562913 0.0 10081934
19:00+28зсз453285 0.0 10071667
22:00+22зсз33480 0.0 100729
2 августа, пн
пн201:00+19зсз33615 0.0 100741
04:00+17юз11704 0.0 100611
07:00+18зюз34695 0.0 100778
10:00+24зсз46457 0.0 1007657
13:00+25сз5545100 0.0 1007984
16:00+26сз345088 0.4 1007759
19:00+28всв134346 0.4 10061135
22:00+23ссз355937 0.0 1007111